Regional Weather Roundup
Issued by NWS Grand Forks, ND

Home | Current Version | Previous Version | Graphics & Text | Print | Product List | Glossary On
Versions: 1 2 3 4 5 6 7 8 9 10 11 12 13 14 15 16 17 18 19 20 21 22 23 24 25 26 27 28 29 30 31 32 33 34 35 36 37 38 39 40 41 42 43 44 45 46 47 48 49 50
000
ASUS43 KFGF 301610
RWRFGF
PRAIRIE TO PINES  WEATHER ROUNDUP
NATIONAL WEATHER SERVICE EASTERN NORTH DAKOTA/GRAND FORKS ND
1100 AM CDT TUE SEP 30 2014

 **SATELLITE DATA USED TO AUGMENT SKY COVER AT AUTOMATED STATIONS**
 *****  WEATHER ACROSS EASTERN NORTH DAKOTA  *****

CITY           SKY/WX    TMP DP  RH WIND       PRES   REMARKS
GRAND FORKS    CLOUDY    50  44  80 SE15G22   29.89F
GRAND FRKS AFB CLOUDY    47  47  99 SE13      29.88F
GRAND FRKS NWS   N/A     50 N/A N/A SE16        N/A
DEVILS LAKE    CLOUDY    46  39  76 SE23      29.78F
FARGO          MOSUNNY   52  43  71 SE18G25   29.87F
WAHPETON ARPT  CLOUDY    48  41  76 SE15G25   29.90S
$$

 ***** WEATHER ACROSS CENTRAL AND WESTERN NORTH DAKOTA  *****

CITY           SKY/WX    TMP DP  RH WIND       PRES   REMARKS
BISMARCK       CLOUDY    53  50  89 E16G26    29.66F
MINOT          FOG       48  47  96 E16       29.71F VSB 3/4
JAMESTOWN      CLOUDY    48  44  86 SE14G23   29.77F
MINOT AFB      CLOUDY    48  48 100 E18       29.71F FOG
GARRISON         N/A     52  50  93 E16G22    29.67F
WILLISTON      LGT RAIN  54  52  93 SE3       29.66F FOG
DICKINSON      LGT RAIN  52  50  93 E12       29.61F
HETTINGER      CLOUDY    52  51  97 E13       29.57F FOG
$$

 *****  OTHER AIRPORT OBSERVATIONS IN OUR AREA  *****

CITY           SKY/WX    TMP DP  RH WIND       PRES   REMARKS
WALHALLA       CLOUDY    45  45 100 SE17      29.88F
GRAFTON AIRPOR CLOUDY    46  45  93 SE16G22   29.90F
VALLEY CITY AR CLOUDY    46  46 100 SE25      29.81F
CANDO          CLOUDY    46  45  93 SE15G23   29.79F
CAVALIER APRT  CLOUDY    46  45  93 SE12      29.89F
GWINNER        CLOUDY    52  46  82 SE26G35   29.81F
ROLLA          CLOUDY    45  45 100 SE16      29.80F
 ***** THE ABOVE OBSERVATIONS ARE NON NWS ARE NOT QUALITY
       CONTROLLED AND MAY MIS-REPORT RAIN FOR SNOW...
$$

  *****  WEATHER ACROSS NORTHERN MINNESOTA  *****

CITY           SKY/WX    TMP DP  RH WIND       PRES   REMARKS
FLAG ISLAND    CLOUDY    45  43  93 S15       30.01F
WARROAD        CLOUDY    46  43  87 SE12      30.00F
ROSEAU         CLOUDY    48  43  81 SE13      29.98F
HALLOCK        MOSUNNY   52  45  76 SE16      29.91F
THF RVR FALLS  PTSUNNY   48  43  81 E13       29.93F
BAUDETTE       CLOUDY    44  39  82 SE10      30.02F
WASKISH        CLOUDY    46  43  87 E5        30.01F
CROOKSTON      SUNNY     52  45  76 SE12G20   29.91F
STEPHEN NDAWN    N/A     52  46  82 SE15        N/A
GREENBUSH NDAW   N/A     48  45  87 E13         N/A
$$
  *****  WEATHER ACROSS CENTRAL AND WEST MINNESOTA  *****

CITY           SKY/WX    TMP DP  RH WIND       PRES   REMARKS
FOSSTON        SUNNY     52  45  76 SE8G17    29.94F
BEMIDJI        CLOUDY    45  41  85 SE14      29.99F
PARK RAPIDS    CLOUDY    45  40  82 SE16      29.98F
ELBOW LAKE     FAIR      46  41  82 SE18G25   29.90F
WADENA         PTSUNNY   45  39  81 E15       29.96F
DETROIT LAKES  SUNNY     48  41  76 SE18      29.92F
MOORHEAD       NOT AVBL
FERGUS FALLS   MOSUNNY   48  39  71 SE17G25   29.90F
MORRIS MN      PTSUNNY   48  43  81 SE22      29.90S
STAPLES        PTSUNNY   45  39  81 SE12G17   29.99F
$$
  *****  WEATHER ELSEWHERE ACROSS MINNESOTA  *****

CITY           SKY/WX    TMP DP  RH WIND       PRES   REMARKS
DULUTH         CLOUDY    44  39  82 E16       30.09S
INTRNTL FALLS  CLOUDY    44  40  85 SE9       30.06F
ELY            CLOUDY    43  37  81 SE9       30.10F
CLOQUET        CLOUDY    45  39  81 E10       30.09S
WHEATON        PTSUNNY   46  43  87 E20G26    29.89F
BRAINERD       CLOUDY    44  41  89 MISG      30.03F
HIBBING        CLOUDY    45  39  79 SE12      30.09S
ALEXANDRIA     CLOUDY    44  41  89 E17G25    29.96F
SAINT CLOUD    PTSUNNY   48  40  73 SE10      30.02F
MINNEAPOLIS    PTSUNNY   47  40  76 E13       30.04F
$$

  *****  WEATHER ACROSS SOUTH DAKOTA  *****

CITY           SKY/WX    TMP DP  RH WIND       PRES   REMARKS
SIOUX FALLS    RAIN      58  54  86 SE15      29.82F FOG
BROOKINGS      NOT AVBL
WATERTOWN      CLOUDY    50  46  86 SE13G23   29.81S
HURON          LGT RAIN  58  56  93 SE13G28   29.68F
SISSETON         N/A     48  44  86 SE16G25   29.85
ABERDEEN       RAIN      55  52  89 E18G28    29.72F FOG
MITCHELL       CLOUDY    62  59  90 SE22G30   29.71F
PIERRE         MOSUNNY   67  48  50 S29G39    29.50F
MOBRIDGE       CLOUDY    57  54  89 SE25G32   29.55F
RAPID CITY     CLOUDY    54  49  83 NW8       29.45R
$$

  *****  SOME WEATHER IN NEARBY STATES *****

CITY           SKY/WX    TMP DP  RH WIND       PRES   REMARKS
GLASGOW MT     CLOUDY    54  50  86 SE6       29.62S
GREAT FALLS MT CLOUDY    57  45  64 SW16      29.70R
CHEYENNE WY    MOSUNNY   56  34  43 W29G36    29.88R
SCOTTSBLUFF NE CLOUDY    58  45  62 W12G22    29.73R
OMAHA NE       CLOUDY    69  59  70 S7        29.88R
DES MOINES IA  CLOUDY    60  56  86 E9        29.96S FOG
DAVENPORT IA   NOT AVBL
CHICAGO IL     DRIZZLE   53  46  77 N7        30.06R FOG
EAU CLAIRE WI  CLOUDY    44  38  79 E8        30.09F
LA CROSSE WI   CLOUDY    49  41  74 SE6       30.09S
$$

  *****  SOME NATIONAL WEATHER *****

CITY           SKY/WX    TMP DP  RH WIND       PRES   REMARKS
LA GUARDIA NY  CLOUDY    68  60  75 NE15G25   29.95S
RALEIGH NC     CLOUDY    66  61  84 CALM      29.94F
ATLANTA GA     MOSUNNY   74  62  66 VRB5      29.97F
NEW ORLEANS LA MOSUNNY   84  73  69 NE6       29.91S HX  90
OKLAHOMA CITY  MOSUNNY   81  64  56 S16       29.90F
ALBUQUERQUE NM SUNNY     56  36  47 CALM      30.06S
SALT LAKE CITY PTSUNNY   56  48  74 SE6       29.98S
LOS ANGELES CA MOSUNNY   69  57  65 SE5       29.87S
BOISE ID       PTSUNNY   54  50  86 W10       29.97R
SEATTLE WA     PTSUNNY   56  51  84 S6        30.08R
$$

*** WEATHER ACROSS MANITOBA...SASKATCHEWAN AND ONTARIO ***
                ***ONTARIO***

CITY           SKY/WX    TMP DP  RH WIND       PRES   REMARKS
GERALDTON      NOT AVBL
THUNDER BAY    NOT AVBL
SIOUX LOOKOUT  NOT AVBL
TORONTO        NOT AVBL
BIG TROUT LK   NOT AVBL
PICKLE LAKE    NOT AVBL
DRYDEN         NOT AVBL
KENORA         NOT AVBL
$$
                *** MANITOBA***

CITY           SKY/WX    TMP DP  RH WIND       PRES   REMARKS
BRANDON        NOT AVBL
DAUPHIN        NOT AVBL
ISLAND LAKE    NOT AVBL
PILOT MOUND    NOT AVBL
THE PAS        NOT AVBL
THOMPSON       NOT AVBL
WINNIPEG       NOT AVBL
$$
                ***SASKATCHEWAN***

CITY           SKY/WX    TMP DP  RH WIND       PRES   REMARKS
ESTEVAN        NOT AVBL
KINDERSLEY     NOT AVBL
LLOYDMINSTER   NOT AVBL
PRINCE ALBERT  NOT AVBL
REGINA         NOT AVBL
YORKTON        NOT AVBL
N. BATTLEFORD  NOT AVBL
LA RONGE       NOT AVBL
SASKATOON      NOT AVBL
SWIFT CURRENT  NOT AVBL
$$
NOTE: THESE ARE AUTOMATED STATIONS WITH LIMITED QUALITY CONTROL
      "FAIR" INDICATES FEW OR NO CLOUDS BELOW 12,000 FEET WITH NO
      SIGNIFICANT WEATHER AND/OR OBSTRUCTIONS TO VISIBILITY.
      SKY/WX - SKY CONDITION AND SIGNIFICANT WEATHER.
      TMP - AIR TEMPERATURE.    DP   - DEWPOINT TEMPERATURE.
      RH  - RELATIVE HUMIDITY.  PRES - PRESSURE.
      HX  - HEAT INDEX.         WCI  - WIND CHILL INDEX.
$


USA.gov is the U.S. government's official web portal to all federal, state and local government web resources and services.